Tracking 25686 objects as of 25-May-2022
HD Live streaming from Space Station
objects crossing your sky now

HELIOS-2A

Track HELIOS-2A now!
10-day predictions
HELIOS-2A is classified as:


NORAD ID: 28492
Int'l Code: 2004-049A
Perigee: 584.9 km
Apogee: 605.9 km
Inclination: 98.2 °
Period: 96.4 minutes
Semi major axis: 6966 km
RCS: Unknown
Launch date: December 18, 2004
Source: France (FR)
Launch site: FRENCH GUIANA (FRGUI)

Optical reconnaissance; independent military intelligence capability for the EU.
aabbcc
Your satellite tracking list
Your tracking list is empty




NASA's NSSDC Master Catalog

Two Line Element Set (TLE):
1 28492U 04049A   22145.13641406  .00003142  00000-0  30688-3 0  9999
2 28492  98.2324  87.0813 0015100 152.7865 207.4144 14.93102920931649
Source of the keplerian elements: McCants